Lid_Strength_Index
1 1 0 0 -1 -1 -1 -1 -1 -1 -1 -1 -1 -1 -1 -1 -0 -1 -0 0 1 -1 -0 -0 -1 -1 1 6 6 4 0 1 5 5 7 8 10 11 12 12 11 12 12 10 10 10 11
0 1 0 1 -0 -1 -1 -1 -1 -1 -1 -1 -1 -1 -1 -1 -0 -0 0 1 1 -0 0 0 -1 -1 4 10 3 4 4 5 5 6 8 8 9 9 11 12 12 12 11 11 11 11 11
2 1 1 1 0 -1 -1 -0 -1 -1 -1 -1 -1 -1 -1 -1 -1 0 1 1 1 -0 0 0 -1 1 6 8 3 5 5 5 5 7 8 8 8 10 11 11 10 11 13 13 12 11 12
2 2 2 1 1 -0 -1 -0 -1 -1 -1 -1 -1 -1 -1 -1 -0 0 1 1 1 1 -1 1 -0 4 9 4 4 5 5 6 5 6 7 7 7 8 10 10 11 13 14 17 14 12 12
3 2 3 2 1 0 0 -0 -0 -1 -1 -0 -0 -1 -1 -1 -1 0 1 1 0 1 -0 0 4 8 10 2 6 5 6 6 6 7 7 6 8 10 11 14 16 15 18 17 15 11 12
3 2 3 3 2 1 0 -0 -0 -0 -1 -1 -1 -0 -1 -1 -1 1 1 -1 -0 0 1 2 5 11 7 7 5 5 6 5 8 8 8 9 11 13 14 16 18 17 17 16 17 14 13
3 3 3 3 3 1 1 1 0 0 0 -0 -1 -1 -1 -1 -0 -0 2 6 9 9 8 11 10 10 8 5 4 6 6 6 8 9 12 11 13 15 13 14 16 15 16 16 15 13 14
3 4 4 3 3 3 2 2 1 1 1 1 1 -0 -1 -0 -0 0 2 9 10 8 11 9 8 6 6 6 8 7 6 9 10 13 12 13 15 12 12 13 14 15 16 16 14 13 14
3 5 5 5 4 3 3 3 2 3 3 2 2 2 1 -0 0 2 3 4 3 5 11 10 9 8 7 6 9 8 7 9 11 12 13 14 13 12 12 14 14 16 16 16 16 15 15
2 3 5 6 5 4 3 4 4 4 4 3 3 3 3 1 2 3 4 1 1 3 13 12 11 10 7 6 9 6 7 8 11 12 12 13 12 12 13 13 13 15 13 14 14 16 19
2 3 5 6 6 5 4 4 4 4 5 5 4 3 3 2 3 4 2 1 2 5 19 11 11 7 7 9 10 9 8 9 11 11 12 13 12 13 14 13 12 14 13 14 15 16 17
1 1 4 6 7 6 5 4 5 4 5 5 5 5 3 2 2 2 2 2 3 13 18 12 11 11 11 11 10 9 9 10 10 11 12 13 11 12 12 12 12 12 13 15 15 17 20
-0 0 2 4 6 6 5 4 4 4 5 5 5 5 4 4 4 3 2 5 13 18 11 12 12 11 13 13 12 12 12 13 14 15 15 13 13 12 11 12 12 14 16 20 21 21 21
-1 -1 -0 2 4 5 6 5 5 5 3 4 5 5 5 4 3 3 3 9 18 14 12 10 10 11 13 11 12 12 13 14 13 14 15 15 16 12 11 12 13 14 15 19 22 22 21
-1 -1 -1 0 2 3 5 6 6 5 5 4 5 7 7 4 4 3 7 15 14 13 10 11 11 13 13 12 12 12 13 14 12 13 15 16 16 12 12 12 11 14 16 15 18 25 22
-0 -1 -1 -0 0 1 3 4 6 6 5 5 9 9 8 3 3 5 10 13 12 9 10 10 13 12 14 13 13 13 13 12 12 11 12 13 16 14 13 12 12 13 12 16 18 24 25
-0 -0 -1 -1 -1 -0 1 3 4 6 5 6 10 13 8 4 4 8 14 12 11 9 9 11 12 12 13 13 13 14 13 12 11 11 11 13 14 15 13 14 14 14 15 15 15 18 21
0 -0 -0 -1 -1 -0 0 1 2 4 5 8 11 16 8 4 10 12 13 11 9 9 8 9 9 11 12 12 14 14 13 12 10 11 13 12 13 17 15 14 13 13 14 14 17 19 19
0 0 -0 -0 -0 -1 -0 0 1 2 3 9 13 14 8 6 13 13 11 10 9 9 9 10 10 9 10 12 14 14 13 11 11 11 12 11 15 19 16 15 14 15 14 14 14 16 18
1 0 0 -0 -0 -0 -1 -0 1 1 1 6 12 16 13 9 10 11 11 11 11 8 9 8 9 9 10 12 10 12 12 11 10 10 9 9 14 15 16 16 14 15 14 14 14 17 17
1 1 1 0 -0 0 -0 -1 -0 1 1 5 11 14 13 17 13 13 11 11 12 12 9 9 10 10 11 13 13 13 11 11 10 9 10 11 16 15 14 13 13 14 14 13 15 14 16
1 1 1 1 0 0 -0 -0 -1 -0 1 6 12 13 12 14 14 12 13 14 12 11 11 12 12 10 10 12 12 13 11 11 12 10 10 11 15 14 15 13 13 15 13 14 14 15 14
2 1 1 1 1 0 0 -0 -0 -0 2 6 7 9 10 12 14 12 12 13 13 10 11 10 10 11 11 11 9 9 8 9 9 10 11 11 14 16 17 14 14 16 15 14 14 13 13
2 2 1 1 1 1 1 0 -0 -0 1 6 7 9 13 17 13 12 11 10 11 10 12 12 10 11 12 11 11 12 12 11 10 11 10 12 13 14 17 15 20 16 14 12 12 12 11
1 2 2 1 1 1 1 1 0 -0 -0 4 6 9 13 20 12 12 11 11 11 11 13 12 13 13 10 12 15 16 18 14 15 14 11 10 12 16 17 17 17 16 15 14 14 14 11
1 1 2 2 2 1 1 1 1 0 0 2 6 6 10 14 14 10 12 11 15 15 16 15 13 13 13 15 18 24 21 20 20 16 13 12 11 14 19 19 23 18 15 14 14 18 14
2 1 1 2 2 2 2 1 1 1 0 2 4 5 7 14 11 10 13 13 11 13 15 17 14 12 12 17 22 23 22 18 21 21 17 14 13 15 19 20 19 16 15 14 20 19 15
2 2 1 1 2 2 2 1 1 1 1 2 4 3 6 11 12 9 9 11 12 13 14 14 12 12 14 14 17 19 22 18 21 19 16 14 15 16 15 17 19 15 13 14 13 12 12
2 2 1 1 1 2 2 2 1 2 1 1 6 3 2 8 9 8 8 7 7 8 11 15 13 14 11 14 17 17 21 22 23 22 14 17 14 17 14 14 12 12 12 10 10 11 11